Weather Service Report


930 
ASUS45 KBOI 210310
RWRID 
WEATHER ROUNDUP FOR IDAHO
NATIONAL WEATHER SERVICE BOISE ID
900 PM MDT SUN APR 20 2014

NOTE: "FAIR" INDICATES FEW OR NO CLOUDS BELOW 12000 FEET
WITH NO SIGNIFICANT WEATHER AND/OR OBSTRUCTIONS TO VISIBILITY

IDZ012-014-210400-
SOUTHWEST IDAHO

  
CITY           SKY/WX    TMP DP  RH WIND       PRES   REMARKS
BOISE          PTCLDY    57  21  24 N9        30.20S                  
CALDWELL       PTCLDY    54  25  32 E3        30.22S                  
MOUNTAIN HOME  CLEAR     57  19  22 NW9       30.20R                  
$$

IDZ016-017-210400-
SOUTHCENTRAL IDAHO

  
CITY           SKY/WX    TMP DP  RH WIND       PRES   REMARKS
BURLEY         CLEAR     48  21  34 W13       30.20R                  
JEROME         CLEAR     50  18  28 SW7       30.20R                  
TWIN FALLS     CLEAR     52  18  26 SW12      30.22R                  
$$

IDZ019>023-210400-
SOUTHEAST IDAHO

  
CITY           SKY/WX    TMP DP  RH WIND       PRES   REMARKS
IDAHO FALLS    CLEAR     54  18  24 S12       30.19R                  
POCATELLO      CLEAR     50  13  22 SW13      30.22R                  
REXBURG        CLEAR     52  15  23 S7        30.19R                  
$$

IDZ006-010-011-018-031-032-210400-
CENTRAL IDAHO MOUNTAINS

  
CITY           SKY/WX    TMP DP  RH WIND       PRES   REMARKS
MCCALL         PTCLDY    45  24  43 CALM      30.23S                  
HAILEY         PTCLDY    50  25  37 S8        30.19R                  
STANLEY          N/A     38  19  46 S5        30.26R WCI  34          
SALMON         PTCLDY    48  21  34 E5        30.18R                  
CHALLIS        PTCLDY    50  10  20 NW8       30.19R                  
$$

IDZ002-004-006-007-026-210400-
NORTHERN IDAHO

  
CITY           SKY/WX    TMP DP  RH WIND       PRES   REMARKS
LEWISTON       MOCLDY    59  26  28 E3        30.17F                  
LOWELL           N/A     47  39  74 CALM      30.23R                  
COEUR D'ALENE  PTCLDY    52  28  40 CALM      30.21S                  
MULLAN PASS    MOCLDY    36  21  54 SW5       30.23S WCI  32          
$$

Return to Home page


Western Regional Climate Center, wrcc@dri.edu